Home   Weather   Amberg   Past weeks

Flag for Germany Past Weather in Amberg, Bavaria, Germany — Yesterday and Last 2 Weeks

Now
25 °F

Ice fog.


Feels Like: 25 °F
Forecast: 20 / 32 °F
Wind: No wind

Location: Hohenfels

Current Time: Dec 7, 2016 at 9:58:33 am

Latest Report: Dec 7, 2016 at 9:02 am


Visibility: 1 mi

Pressure: 30.57 "Hg

Humidity: 100%

Dew Point: 25 °F

Location of AmbergLocation

Past Weather in Amberg — Graph

°F

Amberg Temperature Yesterday

Maximum temperature yesterday: 29 °F (at 11:58 am)
Minimum temperature yesterday: 27 °F (at 2:03 am)
Average temperature yesterday: 28 °F

High & Low Weather Summary for the Past Weeks

 TemperatureHumidityPressure
High50 °F (Nov 22, 1:58 pm)100% (Nov 22, 8:58 am)30.66 "Hg (Nov 22, 8:58 am)
Low12 °F (Dec 5, 3:58 am)56% (Nov 30, 9:58 pm)29.96 "Hg (Nov 22, 8:58 am)
Average32 °F92%30.29 "Hg
* Reported Nov 22 8:58 am — Dec 7 8:00 am, Amberg, Weather by CustomWeather, © 2016

Note: Actual official high and low records may vary slightly from our data, if they occured in-between our weather recording intervals... More about our weather records

Advertising

Amberg Weather History for the Previous 24 Hours

Scroll right to see more
 ConditionsComfort  
Time TempWeatherWind HumidityBarometerVisibility
8:00 am
Wed, Dec 7
25 °FIce fog.No wind100%30.56 "Hg1 mi
7:58 am25 °FIce fog.No wind99%30.66 "Hg1 mi
6:58 am25 °FIce fog.3 mph100%30.66 "Hg1 mi
6:00 am25 °FIce fog.No wind100%30.56 "Hg1 mi
4:58 am25 °FIce fog.No wind93%30.66 "Hg2 mi
4:00 am23 °FIce fog.No wind100%30.56 "Hg3 mi
3:58 am23 °FIce fog.No wind100%30.66 "Hg2 mi
2:58 am23 °FIce fog.No wind98%30.66 "Hg3 mi
1:58 am23 °FIce fog.No wind100%30.64 "Hg3 mi
12:58 am23 °FIce fog.3 mph100%30.64 "Hg2 mi
6:59 pm
Tue, Dec 6
27 °FIce fog.3 mph100%30.50 "Hg2 mi
6:58 pm27 °FIce fog.3 mph99%30.60 "Hg3 mi
5:58 pm28 °FIce fog.No wind100%30.58 "Hg5 mi
4:58 pm28 °FIce fog.No wind100%30.58 "Hg6 mi
3:58 pm28 °FIce fog.No wind100%30.57 "Hg5 mi
2:58 pm28 °FLow clouds.No wind100%30.55 "HgN/A
1:58 pm28 °FIce fog.3 mph100%30.53 "Hg6 mi
12:58 pm28 °FLow clouds.No wind100%30.55 "HgN/A
11:58 am29 °FIce fog.No wind99%30.53 "Hg4 mi
10:58 am29 °FIce fog.No wind99%30.53 "Hg5 mi
9:58 am28 °FIce fog.No wind99%30.53 "Hg4 mi
Weather by CustomWeather, © 2016

See weather overviewHow to use our weather pages